"datetime","temp","dp","rain_mm","uv","solar","mb","wind_mph","gust_mph","windchill","rh"
"2023-03-14 00:00:00",10.1,8.9,0.0,0.0,0,985.7,2,4,"",92
"2023-03-14 00:01:00",10.1,8.9,0.0,0.0,0,985.7,2,3,"",92
"2023-03-14 00:02:00",10.1,8.9,0.0,0.0,0,985.7,3,5,"",92
"2023-03-14 00:03:00",10.1,8.9,0.0,0.0,0,985.7,2,4,"",92
"2023-03-14 00:04:00",10.1,8.9,0.0,0.0,0,985.7,2,5,"",92
"2023-03-14 00:05:00",10.1,8.9,0.0,0.0,0,985.7,2,4,"",92
"2023-03-14 00:06:00",10.1,8.9,0.0,0.0,0,985.7,3,5,"",92
"2023-03-14 00:07:00",10.1,8.9,0.0,0.0,0,985.8,4,8,"",92
"2023-03-14 00:08:00",10.1,8.9,0.0,0.0,0,985.8,2,3,"",92
"2023-03-14 00:09:00",10.1,8.9,0.0,0.0,0,985.8,3,4,"",92
"2023-03-14 00:10:00",10.1,8.9,0.0,0.0,0,985.8,2,3,"",92
"2023-03-14 00:11:00",10.1,8.9,0.0,0.0,0,985.8,1,2,"",92
"2023-03-14 00:12:00",10.1,8.9,0.0,0.0,0,985.8,2,3,"",92
"2023-03-14 00:13:00",10.1,8.9,0.0,0.0,0,985.8,2,6,"",92
"2023-03-14 00:14:00",10.1,8.9,0.0,0.0,0,985.8,4,7,"",92
"2023-03-14 00:15:00",10.1,8.9,0.0,0.0,0,985.8,2,4,"",92
"2023-03-14 00:16:00",10.1,8.9,0.0,0.0,0,985.8,2,3,"",92
"2023-03-14 00:17:00",10.1,8.9,0.0,0.0,0,985.8,2,4,"",92
"2023-03-14 00:18:00",10.1,8.9,0.0,0.0,0,985.8,2,3,"",92
"2023-03-14 00:19:00",10.1,8.9,0.2,0.0,0,985.8,3,6,"",92
"2023-03-14 00:20:00",10.1,8.9,0.2,0.0,0,985.8,3,4,"",92
"2023-03-14 00:21:00",10.1,8.9,0.2,0.0,0,985.8,2,3,"",92
"2023-03-14 00:22:00",10.1,8.9,0.2,0.0,0,985.8,3,4,"",92
"2023-03-14 00:23:00",10.1,8.9,0.2,0.0,0,985.8,2,3,"",92
"2023-03-14 00:24:00",10.1,8.9,0.2,0.0,0,985.8,2,4,"",92
"2023-03-14 00:25:00",10.1,8.9,0.2,0.0,0,985.8,2,4,"",92
"2023-03-14 00:26:00",10.1,8.9,0.2,0.0,0,985.9,2,3,"",92
"2023-03-14 00:27:00",10.1,8.9,0.2,0.0,0,985.9,2,3,"",92
"2023-03-14 00:28:00",10.1,8.9,0.2,0.0,0,985.9,2,3,"",92
"2023-03-14 00:29:00",10.1,8.9,0.2,0.0,0,985.9,1,2,"",92
"2023-03-14 00:30:00",10.1,8.9,0.2,0.0,0,985.9,2,3,"",92
"2023-03-14 00:31:00",10.1,8.9,0.2,0.0,0,985.9,2,5,"",92
"2023-03-14 00:32:00",10.1,8.9,0.2,0.0,0,985.9,3,6,"",92
"2023-03-14 00:33:00",10.1,8.9,0.2,0.0,0,985.9,2,4,"",92
"2023-03-14 00:34:00",10.1,8.9,0.2,0.0,0,985.9,3,8,"",92
"2023-03-14 00:35:00",10.0,8.8,0.2,0.0,0,985.9,2,4,"",92
"2023-03-14 00:36:00",10.1,8.9,0.2,0.0,0,986.0,1,2,"",92
"2023-03-14 00:37:00",10.0,8.8,0.2,0.0,0,986.0,3,4,"",92
"2023-03-14 00:38:00",10.0,8.8,0.2,0.0,0,986.0,2,3,"",92
"2023-03-14 00:39:00",10.0,8.8,0.2,0.0,0,986.0,1,3,"",92
"2023-03-14 00:40:00",10.0,8.8,0.2,0.0,0,986.1,1,2,"",92
"2023-03-14 00:41:00",10.0,8.8,0.2,0.0,0,986.0,1,2,"",92
"2023-03-14 00:42:00",10.0,8.8,0.2,0.0,0,986.1,2,3,"",92
"2023-03-14 00:43:00",10.1,8.9,0.2,0.0,0,986.1,2,3,"",92
"2023-03-14 00:44:00",10.0,8.8,0.2,0.0,0,986.1,3,6,8.7,92
"2023-03-14 00:45:00",10.0,8.8,0.2,0.0,0,986.1,3,5,9.0,92
"2023-03-14 00:46:00",10.0,8.9,0.2,0.0,0,986.1,2,3,"",93
"2023-03-14 00:47:00",10.1,9.0,0.4,0.0,0,986.1,2,3,"",93
"2023-03-14 00:48:00",10.0,8.9,0.4,0.0,0,986.2,1,2,"",93
"2023-03-14 00:49:00",10.0,8.9,0.4,0.0,0,986.2,1,3,"",93
"2023-03-14 00:50:00",10.1,9.0,0.4,0.0,0,986.2,1,2,"",93
"2023-03-14 00:51:00",10.1,9.0,0.4,0.0,0,986.3,1,2,"",93
"2023-03-14 00:52:00",10.0,8.9,0.4,0.0,0,986.3,1,4,9.4,93
"2023-03-14 00:53:00",10.0,8.9,0.4,0.0,0,986.3,1,4,9.4,93
"2023-03-14 00:54:00",10.0,8.9,0.4,0.0,0,986.4,2,3,"",93
"2023-03-14 00:55:00",10.0,8.9,0.4,0.0,0,986.4,1,2,"",93
"2023-03-14 00:56:00",10.0,8.9,0.6,0.0,0,986.4,1,2,"",93
"2023-03-14 00:57:00",10.0,8.9,0.6,0.0,0,986.6,3,4,9.4,93
"2023-03-14 00:58:00",10.0,8.9,0.6,0.0,0,987.1,4,6,8.7,93
"2023-03-14 00:59:00",9.9,8.8,1.2,0.0,0,987.6,2,4,9.4,93
"2023-03-14 01:00:00",10.0,8.9,1.4,0.0,0,987.4,3,5,9.0,93
"2023-03-14 01:01:00",10.0,8.9,1.4,0.0,0,987.3,2,4,9.4,93
"2023-03-14 01:02:00",9.9,8.7,1.4,0.0,0,987.4,1,3,"",92
"2023-03-14 01:03:00",9.8,8.6,1.6,0.0,0,987.4,4,7,8.2,92
"2023-03-14 01:04:00",9.8,8.6,1.6,0.0,0,987.4,3,5,8.8,92
"2023-03-14 01:05:00",9.7,8.5,1.6,0.0,0,987.5,2,5,8.8,92
"2023-03-14 01:06:00",9.7,8.5,1.6,0.0,0,987.5,2,3,"",92
"2023-03-14 01:07:00",9.6,8.4,1.6,0.0,0,987.5,2,5,8.5,92
"2023-03-14 01:08:00",9.5,8.3,1.6,0.0,0,987.5,2,4,8.8,92
"2023-03-14 01:09:00",9.4,8.2,1.6,0.0,0,987.5,2,4,8.7,92
"2023-03-14 01:10:00",9.4,8.2,1.6,0.0,0,987.5,2,3,"",92
"2023-03-14 01:11:00",9.3,8.1,1.6,0.0,0,987.5,3,7,7.7,92
"2023-03-14 01:12:00",9.3,8.1,1.6,0.0,0,987.6,1,3,"",92
"2023-03-14 01:13:00",9.2,8.0,1.6,0.0,0,987.6,2,4,8.4,92
"2023-03-14 01:14:00",9.2,8.0,1.6,0.0,0,987.7,2,3,"",92
"2023-03-14 01:15:00",9.1,7.7,1.6,0.0,0,987.7,2,6,7.7,91
"2023-03-14 01:16:00",9.0,7.6,1.6,0.0,0,987.8,2,5,7.8,91
"2023-03-14 01:17:00",8.9,7.5,1.6,0.0,0,987.9,2,4,8.1,91
"2023-03-14 01:18:00",8.9,7.5,1.6,0.0,0,987.9,2,4,8.0,91
"2023-03-14 01:19:00",8.8,7.4,1.6,0.0,0,987.9,1,3,"",91
"2023-03-14 01:20:00",8.8,7.4,1.6,0.0,0,988.0,3,7,7.0,91
"2023-03-14 01:21:00",8.7,7.3,1.6,0.0,0,988.1,3,4,7.9,91
"2023-03-14 01:22:00",8.6,7.2,1.6,0.0,0,988.1,2,4,7.7,91
"2023-03-14 01:23:00",8.6,7.2,1.6,0.0,0,988.1,2,4,7.7,91
"2023-03-14 01:24:00",8.5,7.1,1.6,0.0,0,988.1,2,4,7.6,91
"2023-03-14 01:25:00",8.4,7.0,1.6,0.0,0,988.2,1,3,"",91
"2023-03-14 01:26:00",8.4,7.0,1.6,0.0,0,988.2,1,2,"",91
"2023-03-14 01:27:00",8.4,7.0,1.6,0.0,0,988.3,2,5,7.1,91
"2023-03-14 01:28:00",8.4,7.0,1.6,0.0,0,988.4,1,3,"",91
"2023-03-14 01:29:00",8.3,6.9,1.6,0.0,0,988.4,1,3,"",91
"2023-03-14 01:30:00",8.3,6.9,1.6,0.0,0,988.4,2,3,"",91
"2023-03-14 01:31:00",8.2,6.8,1.6,0.0,0,988.4,1,2,"",91
"2023-03-14 01:32:00",8.2,6.8,1.6,0.0,0,988.4,1,2,"",91
"2023-03-14 01:33:00",8.2,6.8,1.6,0.0,0,988.4,2,3,"",91
"2023-03-14 01:34:00",8.2,6.8,1.6,0.0,0,988.5,2,4,7.3,91
"2023-03-14 01:35:00",8.2,6.8,1.6,0.0,0,988.5,1,2,"",91
"2023-03-14 01:36:00",8.2,6.8,1.6,0.0,0,988.5,2,3,"",91
"2023-03-14 01:37:00",8.1,6.7,1.6,0.0,0,988.6,1,2,"",91
"2023-03-14 01:38:00",8.1,6.7,1.6,0.0,0,988.6,1,2,"",91
"2023-03-14 01:39:00",8.1,6.7,1.6,0.0,0,988.7,4,7,6.1,91
"2023-03-14 01:40:00",8.0,6.6,1.6,0.0,0,988.7,2,5,6.8,91
"2023-03-14 01:41:00",8.0,6.6,1.6,0.0,0,988.7,1,2,"",91
"2023-03-14 01:42:00",7.9,6.5,1.6,0.0,0,988.8,1,4,6.9,91
"2023-03-14 01:43:00",7.9,6.5,1.6,0.0,0,988.9,1,3,"",91
"2023-03-14 01:44:00",7.9,6.5,1.6,0.0,0,988.9,1,2,"",91
"2023-03-14 01:45:00",7.9,6.5,1.6,0.0,0,988.9,1,2,"",91
"2023-03-14 01:46:00",7.9,6.5,1.6,0.0,0,988.9,1,2,"",91
"2023-03-14 01:47:00",7.9,6.5,1.6,0.0,0,988.9,1,1,"",91
"2023-03-14 01:48:00",7.9,6.5,1.6,0.0,0,989.0,1,2,"",91
"2023-03-14 01:49:00",7.9,6.5,1.6,0.0,0,989.0,2,3,"",91
"2023-03-14 01:50:00",7.8,6.4,1.6,0.0,0,989.0,1,3,"",91
"2023-03-14 01:51:00",7.8,6.4,1.6,0.0,0,989.0,1,2,"",91
"2023-03-14 01:52:00",7.8,6.4,1.6,0.0,0,989.0,2,3,"",91
"2023-03-14 01:53:00",7.8,6.4,1.6,0.0,0,989.0,0,2,"",91
"2023-03-14 01:54:00",7.8,6.4,1.6,0.0,0,989.0,1,2,"",91
"2023-03-14 01:55:00",7.8,6.4,1.6,0.0,0,989.1,0,1,"",91
"2023-03-14 01:56:00",7.8,6.4,1.6,0.0,0,989.1,1,2,"",91
"2023-03-14 01:57:00",7.8,6.4,1.6,0.0,0,989.2,1,2,"",91
"2023-03-14 01:58:00",7.8,6.4,1.6,0.0,0,989.2,1,2,"",91
"2023-03-14 01:59:00",7.8,6.4,1.6,0.0,0,989.2,2,3,"",91
"2023-03-14 02:00:00",7.7,6.3,1.6,0.0,0,989.3,1,2,"",91
"2023-03-14 02:01:00",7.7,6.3,1.6,0.0,0,989.3,1,3,"",91
"2023-03-14 02:02:00",7.7,6.3,1.6,0.0,0,989.4,2,2,"",91
"2023-03-14 02:03:00",7.7,6.3,1.6,0.0,0,989.4,2,3,"",91
"2023-03-14 02:04:00",7.7,6.3,1.6,0.0,0,989.5,1,2,"",91
"2023-03-14 02:05:00",7.7,6.5,1.6,0.0,0,989.5,1,2,"",92
"2023-03-14 02:06:00",7.6,6.4,1.6,0.0,0,989.5,1,2,"",92
"2023-03-14 02:07:00",7.6,6.4,1.6,0.0,0,989.6,1,2,"",92
"2023-03-14 02:08:00",7.6,6.4,1.6,0.0,0,989.7,2,3,"",92
"2023-03-14 02:09:00",7.6,6.4,1.6,0.0,0,989.7,1,3,"",92
"2023-03-14 02:10:00",7.6,6.4,1.6,0.0,0,989.8,1,2,"",92
"2023-03-14 02:11:00",7.6,6.4,1.6,0.0,0,989.8,2,4,6.6,92
"2023-03-14 02:12:00",7.5,6.3,1.6,0.0,0,989.8,1,3,"",92
"2023-03-14 02:13:00",7.5,6.3,1.6,0.0,0,989.8,2,4,6.5,92
"2023-03-14 02:14:00",7.4,6.2,1.6,0.0,0,989.9,3,7,5.4,92
"2023-03-14 02:15:00",7.4,6.0,1.6,0.0,0,989.9,1,3,"",91
"2023-03-14 02:16:00",7.4,6.0,1.6,0.0,0,990.0,1,2,"",91
"2023-03-14 02:17:00",7.4,6.0,1.6,0.0,0,990.0,4,10,4.6,91
"2023-03-14 02:18:00",7.3,5.9,1.6,0.0,0,990.0,3,6,5.6,91
"2023-03-14 02:19:00",7.3,5.9,1.6,0.0,0,990.0,2,3,"",91
"2023-03-14 02:20:00",7.3,5.9,1.6,0.0,0,990.1,4,8,4.9,91
"2023-03-14 02:21:00",7.3,5.9,1.6,0.0,0,990.2,2,5,5.7,91
"2023-03-14 02:22:00",7.2,5.8,1.6,0.0,0,990.2,2,6,5.4,91
"2023-03-14 02:23:00",7.2,5.8,1.6,0.0,0,990.2,1,4,6.1,91
"2023-03-14 02:24:00",7.2,5.8,1.6,0.0,0,990.3,1,3,"",91
"2023-03-14 02:25:00",7.2,5.8,1.6,0.0,0,990.2,2,3,"",91
"2023-03-14 02:26:00",7.1,5.7,1.6,0.0,0,990.3,1,3,"",91
"2023-03-14 02:27:00",7.1,5.7,1.6,0.0,0,990.3,1,2,"",91
"2023-03-14 02:28:00",7.1,5.7,1.6,0.0,0,990.4,1,2,"",91
"2023-03-14 02:29:00",7.1,5.7,1.6,0.0,0,990.4,2,3,"",91
"2023-03-14 02:30:00",6.9,5.5,1.6,0.0,0,990.4,1,3,"",91
"2023-03-14 02:31:00",6.9,5.5,1.6,0.0,0,990.5,2,3,"",91
"2023-03-14 02:32:00",6.9,5.5,1.6,0.0,0,990.5,1,3,"",91
"2023-03-14 02:33:00",6.9,5.5,1.6,0.0,0,990.5,0,2,"",91
"2023-03-14 02:34:00",6.8,5.4,1.6,0.0,0,990.5,2,3,"",91
"2023-03-14 02:35:00",6.8,5.4,1.6,0.0,0,990.6,1,4,5.7,91
"2023-03-14 02:36:00",6.8,5.4,1.6,0.0,0,990.6,2,3,"",91
"2023-03-14 02:37:00",6.8,5.4,1.6,0.0,0,990.6,1,2,"",91
"2023-03-14 02:38:00",6.7,5.3,1.6,0.0,0,990.6,1,3,"",91
"2023-03-14 02:39:00",6.7,5.3,1.6,0.0,0,990.7,2,3,"",91
"2023-03-14 02:40:00",6.7,5.3,1.6,0.0,0,990.7,2,3,"",91
"2023-03-14 02:41:00",6.6,5.2,1.6,0.0,0,990.7,2,4,5.4,91
"2023-03-14 02:42:00",6.6,5.2,1.6,0.0,0,990.8,2,4,5.4,91
"2023-03-14 02:43:00",6.5,5.1,1.6,0.0,0,990.8,1,2,"",91
"2023-03-14 02:44:00",6.5,5.1,1.6,0.0,0,990.8,2,3,"",91
"2023-03-14 02:45:00",6.5,5.1,1.6,0.0,0,990.9,1,3,"",91
"2023-03-14 02:46:00",6.4,5.0,1.6,0.0,0,991.0,2,4,5.3,91
"2023-03-14 02:47:00",6.4,5.0,1.6,0.0,0,990.9,1,3,"",91
"2023-03-14 02:48:00",6.4,5.0,1.6,0.0,0,990.9,1,2,"",91
"2023-03-14 02:49:00",6.4,5.0,1.6,0.0,0,991.0,2,5,4.8,91
"2023-03-14 02:50:00",6.4,5.0,1.6,0.0,0,991.0,1,3,"",91
"2023-03-14 02:51:00",6.3,4.9,1.6,0.0,0,991.0,2,4,5.2,91
"2023-03-14 02:52:00",6.3,4.9,1.6,0.0,0,991.0,2,3,"",91
"2023-03-14 02:53:00",6.3,4.9,1.6,0.0,0,991.1,1,2,"",91
"2023-03-14 02:54:00",6.3,4.9,1.6,0.0,0,991.1,2,3,"",91
"2023-03-14 02:55:00",6.3,4.9,1.6,0.0,0,991.1,0,2,"",91
"2023-03-14 02:56:00",6.2,4.8,1.6,0.0,0,991.1,2,3,"",91
"2023-03-14 02:57:00",6.2,4.8,1.6,0.0,0,991.0,2,4,5.0,91
"2023-03-14 02:58:00",6.2,4.8,1.6,0.0,0,991.0,2,3,"",91
"2023-03-14 02:59:00",6.2,4.8,1.6,0.0,0,991.1,1,2,"",91
"2023-03-14 03:00:00",6.1,4.7,1.6,0.0,0,991.2,1,2,"",91
"2023-03-14 03:01:00",6.1,4.7,1.6,0.0,0,991.2,2,4,4.9,91
"2023-03-14 03:02:00",6.1,4.7,1.6,0.0,0,991.2,2,4,4.9,91
"2023-03-14 03:03:00",6.1,4.7,1.6,0.0,0,991.2,2,4,4.9,91
"2023-03-14 03:04:00",6.1,4.7,1.6,0.0,0,991.3,1,2,"",91
"2023-03-14 03:05:00",6.1,4.7,1.6,0.0,0,991.4,1,2,"",91
"2023-03-14 03:06:00",5.9,4.5,1.6,0.0,0,991.4,1,3,"",91
"2023-03-14 03:07:00",5.9,4.5,1.6,0.0,0,991.5,1,3,"",91
"2023-03-14 03:08:00",5.9,4.5,1.6,0.0,0,991.5,1,3,"",91
"2023-03-14 03:09:00",5.9,4.5,1.6,0.0,0,991.6,2,3,"",91
"2023-03-14 03:10:00",5.8,4.4,1.6,0.0,0,991.6,2,3,"",91
"2023-03-14 03:11:00",5.8,4.4,1.6,0.0,0,991.6,2,3,"",91
"2023-03-14 03:12:00",5.8,4.4,1.6,0.0,0,991.6,1,4,4.5,91
"2023-03-14 03:13:00",5.8,4.4,1.6,0.0,0,991.7,2,4,4.5,91
"2023-03-14 03:14:00",5.8,4.4,1.6,0.0,0,991.7,1,3,"",91
"2023-03-14 03:15:00",5.8,4.4,1.6,0.0,0,991.8,1,2,"",91
"2023-03-14 03:16:00",5.8,4.4,1.6,0.0,0,991.8,2,4,4.4,91
"2023-03-14 03:17:00",5.7,4.3,1.6,0.0,0,991.8,1,4,4.5,91
"2023-03-14 03:18:00",5.7,4.3,1.6,0.0,0,991.8,1,2,"",91
"2023-03-14 03:19:00",5.6,4.2,1.6,0.0,0,991.8,1,2,"",91
"2023-03-14 03:20:00",5.6,4.2,1.6,0.0,0,991.8,2,4,4.4,91
"2023-03-14 03:21:00",5.6,4.2,1.6,0.0,0,991.9,1,2,"",91
"2023-03-14 03:22:00",5.6,4.2,1.6,0.0,0,991.8,1,2,"",91
"2023-03-14 03:23:00",5.6,4.2,1.6,0.0,0,991.9,1,2,"",91
"2023-03-14 03:24:00",5.5,4.1,1.6,0.0,0,991.9,3,5,3.8,91
"2023-03-14 03:25:00",5.5,4.1,1.6,0.0,0,991.9,2,4,4.2,91
"2023-03-14 03:26:00",5.4,4.0,1.6,0.0,0,992.0,3,4,4.2,91
"2023-03-14 03:27:00",5.4,4.0,1.6,0.0,0,991.9,2,7,2.9,91
"2023-03-14 03:28:00",5.4,4.0,1.6,0.0,0,991.9,5,8,2.6,91
"2023-03-14 03:29:00",5.3,3.8,1.6,0.0,0,992.0,1,3,"",90
"2023-03-14 03:30:00",5.3,3.8,1.6,0.0,0,992.1,1,2,"",90
"2023-03-14 03:31:00",5.3,3.9,1.6,0.0,0,992.1,1,2,"",91
"2023-03-14 03:32:00",5.3,3.9,1.6,0.0,0,992.1,2,4,3.9,91
"2023-03-14 03:33:00",5.3,3.9,1.6,0.0,0,992.2,1,4,3.9,91
"2023-03-14 03:34:00",5.2,3.9,1.6,0.0,0,992.2,2,3,"",91
"2023-03-14 03:35:00",5.2,3.9,1.6,0.0,0,992.2,1,4,3.8,91
"2023-03-14 03:36:00",5.2,3.9,1.6,0.0,0,992.2,2,4,3.8,91
"2023-03-14 03:37:00",5.2,3.9,1.6,0.0,0,992.2,2,4,3.8,91
"2023-03-14 03:38:00",5.2,3.9,1.6,0.0,0,992.2,2,4,3.8,91
"2023-03-14 03:39:00",5.2,3.9,1.6,0.0,0,992.3,1,2,"",91
"2023-03-14 03:40:00",5.1,3.8,1.6,0.0,0,992.2,1,2,"",91
"2023-03-14 03:41:00",5.1,3.6,1.6,0.0,0,992.3,2,3,"",90
"2023-03-14 03:42:00",5.1,3.6,1.6,0.0,0,992.3,3,8,2.2,90
"2023-03-14 03:43:00",5.1,3.6,1.6,0.0,0,992.3,2,6,2.9,90
"2023-03-14 03:44:00",5.0,3.5,1.6,0.0,0,992.4,1,4,3.6,90
"2023-03-14 03:45:00",5.0,3.5,1.6,0.0,0,992.4,4,7,2.5,90
"2023-03-14 03:46:00",4.9,3.4,1.6,0.0,0,992.4,2,4,3.5,90
"2023-03-14 03:47:00",4.9,3.4,1.6,0.0,0,992.5,2,5,3.0,90
"2023-03-14 03:48:00",4.9,3.4,1.6,0.0,0,992.5,2,3,"",90
"2023-03-14 03:49:00",4.8,3.3,1.6,0.0,0,992.6,2,6,2.6,90
"2023-03-14 03:50:00",4.8,3.3,1.6,0.0,0,992.6,3,5,2.9,90
"2023-03-14 03:51:00",4.8,3.3,1.6,0.0,0,992.5,2,3,"",90
"2023-03-14 03:52:00",4.8,3.3,1.6,0.0,0,992.6,2,4,3.4,90
"2023-03-14 03:53:00",4.8,3.3,1.6,0.0,0,992.7,2,4,3.4,90
"2023-03-14 03:54:00",4.8,3.3,1.6,0.0,0,992.7,2,4,3.4,90
"2023-03-14 03:55:00",4.7,3.2,1.6,0.0,0,992.8,3,9,1.5,90
"2023-03-14 03:56:00",4.7,3.2,1.6,0.0,0,992.7,2,7,2.0,90
"2023-03-14 03:57:00",4.7,3.2,1.6,0.0,0,992.7,2,6,2.4,90
"2023-03-14 03:58:00",4.7,3.2,1.6,0.0,0,992.8,2,4,3.2,90
"2023-03-14 03:59:00",4.6,3.1,1.6,0.0,0,992.8,1,2,"",90
"2023-03-14 04:00:00",4.6,3.1,1.6,0.0,0,992.9,2,5,2.8,90
"2023-03-14 04:01:00",4.6,3.1,1.6,0.0,0,992.9,2,5,2.7,90
"2023-03-14 04:02:00",4.6,3.1,1.6,0.0,0,992.9,2,5,2.7,90
"2023-03-14 04:03:00",4.6,3.1,1.6,0.0,0,992.9,3,5,2.7,90
"2023-03-14 04:04:00",4.6,3.1,1.6,0.0,0,992.9,1,4,3.1,90
"2023-03-14 04:05:00",4.6,3.1,1.6,0.0,0,992.9,3,5,2.7,90
"2023-03-14 04:06:00",4.5,3.0,1.6,0.0,0,992.9,2,4,3.0,90
"2023-03-14 04:07:00",4.4,2.9,1.6,0.0,0,993.0,2,4,3.0,90
"2023-03-14 04:08:00",4.4,2.9,1.6,0.0,0,993.0,2,4,3.0,90
"2023-03-14 04:09:00",4.4,2.9,1.6,0.0,0,993.1,3,7,1.8,90
"2023-03-14 04:10:00",4.4,2.7,1.6,0.0,0,993.2,3,5,2.4,89
"2023-03-14 04:11:00",4.4,2.7,1.6,0.0,0,993.3,2,7,1.7,89
"2023-03-14 04:12:00",4.4,2.7,1.6,0.0,0,993.2,2,5,2.4,89
"2023-03-14 04:13:00",4.4,2.7,1.6,0.0,0,993.2,2,3,"",89
"2023-03-14 04:14:00",4.3,2.6,1.6,0.0,0,993.2,3,4,2.9,89
"2023-03-14 04:15:00",4.4,2.7,1.6,0.0,0,993.2,2,4,2.9,89
"2023-03-14 04:16:00",4.3,2.6,1.6,0.0,0,993.2,2,3,"",89
"2023-03-14 04:17:00",4.3,2.6,1.6,0.0,0,993.3,2,2,"",89
"2023-03-14 04:18:00",4.3,2.6,1.6,0.0,0,993.4,2,3,"",89
"2023-03-14 04:19:00",4.3,2.6,1.6,0.0,0,993.4,1,2,"",89
"2023-03-14 04:20:00",4.3,2.6,1.6,0.0,0,993.5,1,2,"",89
"2023-03-14 04:21:00",4.3,2.6,1.6,0.0,0,993.5,1,2,"",89
"2023-03-14 04:22:00",4.3,2.6,1.6,0.0,0,993.5,2,4,2.8,89
"2023-03-14 04:23:00",4.3,2.6,1.6,0.0,0,993.5,2,5,2.3,89
"2023-03-14 04:24:00",4.3,2.6,1.6,0.0,0,993.5,2,2,"",89
"2023-03-14 04:25:00",4.2,2.5,1.6,0.0,0,993.6,2,4,2.8,89
"2023-03-14 04:26:00",4.2,2.5,1.6,0.0,0,993.6,2,5,2.3,89
"2023-03-14 04:27:00",4.2,2.5,1.6,0.0,0,993.6,1,3,"",89
"2023-03-14 04:28:00",4.2,2.5,1.6,0.0,0,993.7,2,4,2.7,89
"2023-03-14 04:29:00",4.2,2.5,1.6,0.0,0,993.7,2,4,2.7,89
"2023-03-14 04:30:00",4.2,2.5,1.6,0.0,0,993.7,1,2,"",89
"2023-03-14 04:31:00",4.2,2.5,1.6,0.0,0,993.7,1,3,"",89
"2023-03-14 04:32:00",4.2,2.5,1.6,0.0,0,993.7,1,3,"",89
"2023-03-14 04:33:00",4.2,2.5,1.6,0.0,0,993.8,2,4,2.7,89
"2023-03-14 04:34:00",4.2,2.5,1.6,0.0,0,993.9,3,5,2.2,89
"2023-03-14 04:35:00",4.2,2.5,1.6,0.0,0,993.9,1,3,"",89
"2023-03-14 04:36:00",4.1,2.4,1.6,0.0,0,993.9,2,4,2.7,89
"2023-03-14 04:37:00",4.2,2.5,1.6,0.0,0,993.9,1,3,"",89
"2023-03-14 04:38:00",4.1,2.4,1.6,0.0,0,993.9,2,5,2.2,89
"2023-03-14 04:39:00",4.1,2.4,1.6,0.0,0,994.0,1,4,2.5,89
"2023-03-14 04:40:00",4.1,2.4,1.6,0.0,0,994.1,1,2,"",89
"2023-03-14 04:41:00",4.1,2.4,1.6,0.0,0,994.0,2,2,"",89
"2023-03-14 04:42:00",4.1,2.4,1.6,0.0,0,994.1,1,2,"",89
"2023-03-14 04:43:00",4.1,2.4,1.6,0.0,0,994.1,4,7,1.3,89
"2023-03-14 04:44:00",4.1,2.4,1.6,0.0,0,994.1,1,3,"",89
"2023-03-14 04:45:00",4.1,2.4,1.6,0.0,0,994.1,2,4,2.5,89
"2023-03-14 04:46:00",4.1,2.4,1.6,0.0,0,994.1,1,3,"",89
"2023-03-14 04:47:00",4.1,2.4,1.6,0.0,0,994.1,1,3,"",89
"2023-03-14 04:48:00",4.1,2.4,1.6,0.0,0,994.2,1,2,"",89
"2023-03-14 04:49:00",4.1,2.4,1.6,0.0,0,994.1,1,2,"",89
"2023-03-14 04:50:00",4.1,2.4,1.6,0.0,0,994.2,1,2,"",89
"2023-03-14 04:51:00",4.1,2.4,1.6,0.0,0,994.2,0,1,"",89
"2023-03-14 04:52:00",4.1,2.4,1.6,0.0,0,994.2,1,1,"",89
"2023-03-14 04:53:00",4.1,2.4,1.6,0.0,0,994.1,1,1,"",89
"2023-03-14 04:54:00",4.0,2.4,1.6,0.0,0,994.2,1,3,"",89
"2023-03-14 04:55:00",4.0,2.4,1.6,0.0,0,994.2,1,3,"",89
"2023-03-14 04:56:00",4.1,2.4,1.6,0.0,0,994.2,1,2,"",89
"2023-03-14 04:57:00",4.0,2.4,1.6,0.0,0,994.2,2,5,2.1,89
"2023-03-14 04:58:00",4.0,2.4,1.6,0.0,0,994.2,2,3,"",89
"2023-03-14 04:59:00",4.0,2.4,1.6,0.0,0,994.2,1,2,"",89
"2023-03-14 05:00:00",4.0,2.4,1.6,0.0,0,994.3,1,3,"",89
"2023-03-14 05:01:00",3.9,2.3,1.6,0.0,0,994.3,1,2,"",89
"2023-03-14 05:02:00",3.9,2.3,1.6,0.0,0,994.3,1,1,"",89
"2023-03-14 05:03:00",3.9,2.3,1.6,0.0,0,994.3,1,1,"",89
"2023-03-14 05:04:00",3.9,2.3,1.6,0.0,0,994.3,1,2,"",89
"2023-03-14 05:05:00",3.9,2.3,1.6,0.0,0,994.3,0,1,"",89
"2023-03-14 05:06:00",3.9,2.3,1.6,0.0,0,994.4,1,2,"",89
"2023-03-14 05:07:00",3.9,2.3,1.6,0.0,0,994.4,1,2,"",89
"2023-03-14 05:08:00",3.9,2.3,1.6,0.0,0,994.4,1,1,"",89
"2023-03-14 05:09:00",3.9,2.3,1.6,0.0,0,994.4,1,3,"",89
"2023-03-14 05:10:00",3.9,2.3,1.6,0.0,0,994.4,1,3,"",89
"2023-03-14 05:11:00",3.9,2.3,1.6,0.0,0,994.4,1,2,"",89
"2023-03-14 05:12:00",3.9,2.3,1.6,0.0,0,994.5,2,3,"",89
"2023-03-14 05:13:00",3.9,2.3,1.6,0.0,0,994.6,2,4,2.3,89
"2023-03-14 05:14:00",3.9,2.3,1.6,0.0,0,994.6,2,3,"",89
"2023-03-14 05:15:00",3.9,2.3,1.6,0.0,0,994.5,1,2,"",89
"2023-03-14 05:16:00",3.8,2.2,1.6,0.0,0,994.5,1,2,"",89
"2023-03-14 05:17:00",3.8,2.2,1.6,0.0,0,994.6,1,3,"",89
"2023-03-14 05:18:00",3.8,2.2,1.6,0.0,0,994.6,2,4,2.2,89
"2023-03-14 05:19:00",3.8,2.2,1.6,0.0,0,994.7,1,2,"",89
"2023-03-14 05:20:00",3.8,2.2,1.6,0.0,0,994.7,1,2,"",89
"2023-03-14 05:21:00",3.8,2.2,1.6,0.0,0,994.7,2,3,"",89
"2023-03-14 05:22:00",3.8,2.2,1.6,0.0,0,994.7,1,2,"",89
"2023-03-14 05:23:00",3.8,2.2,1.6,0.0,0,994.8,1,3,"",89
"2023-03-14 05:24:00",3.8,2.2,1.6,0.0,0,994.8,1,2,"",89
"2023-03-14 05:25:00",3.8,2.2,1.6,0.0,0,994.9,1,3,"",89
"2023-03-14 05:26:00",3.8,2.2,1.6,0.0,0,994.9,2,3,"",89
"2023-03-14 05:27:00",3.8,2.2,1.6,0.0,0,994.9,1,2,"",89
"2023-03-14 05:28:00",3.8,2.2,1.6,0.0,0,994.9,0,1,"",89
"2023-03-14 05:29:00",3.7,2.1,1.6,0.0,0,994.9,1,2,"",89
"2023-03-14 05:30:00",3.8,2.2,1.6,0.0,0,994.9,1,1,"",89
"2023-03-14 05:31:00",3.7,2.1,1.6,0.0,0,995.0,1,2,"",89
"2023-03-14 05:32:00",3.7,2.1,1.6,0.0,0,995.0,1,2,"",89
"2023-03-14 05:33:00",3.7,2.1,1.6,0.0,0,995.1,0,1,"",89
"2023-03-14 05:34:00",3.7,2.1,1.6,0.0,0,995.2,2,5,1.6,89
"2023-03-14 05:35:00",3.7,2.1,1.6,0.0,0,995.1,1,4,2.1,89
"2023-03-14 05:36:00",3.7,2.1,1.6,0.0,0,995.2,1,3,"",89
"2023-03-14 05:37:00",3.7,2.1,1.6,0.0,0,995.3,1,2,"",89
"2023-03-14 05:38:00",3.7,2.1,1.6,0.0,0,995.3,2,3,"",89
"2023-03-14 05:39:00",3.6,2.0,1.6,0.0,0,995.3,2,2,"",89
"2023-03-14 05:40:00",3.6,2.0,1.6,0.0,0,995.3,2,3,"",89
"2023-03-14 05:41:00",3.6,2.0,1.6,0.0,0,995.3,2,6,1.1,89
"2023-03-14 05:42:00",3.6,2.0,1.6,0.0,0,995.3,1,3,"",89
"2023-03-14 05:43:00",3.6,2.0,1.6,0.0,0,995.3,2,4,2.0,89
"2023-03-14 05:44:00",3.6,2.0,1.6,0.0,0,995.4,2,3,"",89
"2023-03-14 05:45:00",3.6,2.0,1.6,0.0,0,995.4,1,3,"",89
"2023-03-14 05:46:00",3.6,2.0,1.6,0.0,0,995.5,2,5,1.5,89
"2023-03-14 05:47:00",3.6,2.0,1.6,0.0,0,995.5,1,2,"",89
"2023-03-14 05:48:00",3.6,2.0,1.6,0.0,0,995.5,1,3,"",89
"2023-03-14 05:49:00",3.5,1.9,1.6,0.0,0,995.6,1,3,"",89
"2023-03-14 05:50:00",3.5,1.9,1.6,0.0,0,995.6,1,2,"",89
"2023-03-14 05:51:00",3.5,1.9,1.6,0.0,0,995.6,3,6,0.9,89
"2023-03-14 05:52:00",3.5,2.0,1.6,0.0,0,995.6,2,3,"",90
"2023-03-14 05:53:00",3.5,2.0,1.6,0.0,0,995.7,1,3,"",90
"2023-03-14 05:54:00",3.5,2.0,1.6,0.0,0,995.7,1,2,"",90
"2023-03-14 05:55:00",3.5,2.0,1.6,0.0,0,995.7,1,1,"",90
"2023-03-14 05:56:00",3.4,1.9,1.6,0.0,0,995.8,1,2,"",90
"2023-03-14 05:57:00",3.4,1.9,1.6,0.0,0,995.8,0,1,"",90
"2023-03-14 05:58:00",3.5,2.0,1.6,0.0,0,995.8,1,2,"",90
"2023-03-14 05:59:00",3.5,2.0,1.6,0.0,0,995.9,1,2,"",90
"2023-03-14 06:00:00",3.4,1.8,1.6,0.0,0,995.9,2,3,"",89
"2023-03-14 06:01:00",3.4,1.9,1.6,0.0,0,995.9,1,2,"",90
"2023-03-14 06:02:00",3.4,1.9,1.6,0.0,0,995.9,0,1,"",90
"2023-03-14 06:03:00",3.4,1.9,1.6,0.0,0,996.0,1,2,"",90
"2023-03-14 06:04:00",3.4,1.9,1.6,0.0,0,995.9,1,1,"",90
"2023-03-14 06:05:00",3.4,1.9,1.6,0.0,0,996.0,1,2,"",90
"2023-03-14 06:06:00",3.4,1.9,1.6,0.0,0,996.0,1,1,"",90
"2023-03-14 06:07:00",3.4,1.9,1.6,0.0,0,996.0,1,3,"",90
"2023-03-14 06:08:00",3.4,1.9,1.6,0.0,0,996.0,1,2,"",90
"2023-03-14 06:09:00",3.4,1.9,1.6,0.0,0,996.1,1,2,"",90
"2023-03-14 06:10:00",3.4,1.9,1.6,0.0,0,996.1,2,3,"",90
"2023-03-14 06:11:00",3.3,1.8,1.6,0.0,0,996.1,2,5,1.2,90
"2023-03-14 06:12:00",3.3,1.7,1.6,0.0,0,996.2,2,3,"",89
"2023-03-14 06:13:00",3.3,1.8,1.6,0.0,0,996.1,1,2,"",90
"2023-03-14 06:14:00",3.3,1.8,1.6,0.0,0,996.1,1,1,"",90
"2023-03-14 06:15:00",3.3,1.8,1.6,0.0,0,996.2,1,2,"",90
"2023-03-14 06:16:00",3.3,1.8,1.6,0.0,0,996.2,1,2,"",90
"2023-03-14 06:17:00",3.3,1.8,1.6,0.0,0,996.2,1,1,"",90
"2023-03-14 06:18:00",3.3,1.8,1.6,0.0,0,996.2,2,4,1.6,90
"2023-03-14 06:19:00",3.3,1.8,1.6,0.0,0,996.2,1,2,"",90
"2023-03-14 06:20:00",3.3,1.8,1.6,0.0,0,996.3,1,2,"",90
"2023-03-14 06:21:00",3.3,1.8,1.6,0.0,0,996.2,2,2,"",90
"2023-03-14 06:22:00",3.3,1.8,1.6,0.0,0,996.3,1,2,"",90
"2023-03-14 06:23:00",3.2,1.7,1.6,0.0,0,996.3,1,2,"",90
"2023-03-14 06:24:00",3.3,1.8,1.6,0.0,0,996.3,2,3,"",90
"2023-03-14 06:25:00",3.2,1.7,1.6,0.0,0,996.3,2,2,"",90
"2023-03-14 06:26:00",3.2,1.7,1.6,0.0,0,996.3,1,2,"",90
"2023-03-14 06:27:00",3.2,1.7,1.6,0.0,0,996.4,1,3,"",90
"2023-03-14 06:28:00",3.2,1.7,1.6,0.0,0,996.3,2,3,"",90
"2023-03-14 06:29:00",3.2,1.7,1.6,0.0,0,996.4,1,2,"",90
"2023-03-14 06:30:00",3.2,1.7,1.6,0.0,0,996.3,1,2,"",90
"2023-03-14 06:31:00",3.2,1.7,1.6,0.0,5,996.4,2,4,1.5,90
"2023-03-14 06:32:00",3.2,1.7,1.6,0.0,5,996.4,1,2,"",90
"2023-03-14 06:33:00",3.2,1.7,1.6,0.0,5,996.4,1,2,"",90
"2023-03-14 06:34:00",3.2,1.7,1.6,0.0,5,996.4,1,2,"",90
"2023-03-14 06:35:00",3.2,1.7,1.6,0.0,5,996.5,1,2,"",90
"2023-03-14 06:36:00",3.2,1.7,1.6,0.0,7,996.5,1,3,"",90
"2023-03-14 06:37:00",3.2,1.7,1.6,0.0,7,996.6,1,3,"",90
"2023-03-14 06:38:00",3.2,1.7,1.6,0.0,7,996.6,2,3,"",90
"2023-03-14 06:39:00",3.2,1.7,1.6,0.0,7,996.6,2,3,"",90
"2023-03-14 06:40:00",3.2,1.7,1.6,0.0,7,996.7,2,3,"",90
"2023-03-14 06:41:00",3.2,1.7,1.6,0.0,9,996.6,2,3,"",90
"2023-03-14 06:42:00",3.2,1.7,1.6,0.0,9,996.6,1,3,"",90
"2023-03-14 06:43:00",3.2,1.7,1.6,0.0,9,996.6,2,3,"",90
"2023-03-14 06:44:00",3.2,1.7,1.6,0.0,11,996.7,2,3,"",90
"2023-03-14 06:45:00",3.2,1.7,1.6,0.0,11,996.8,1,4,1.5,90
"2023-03-14 06:46:00",3.2,1.7,1.6,0.0,11,996.7,1,2,"",90
"2023-03-14 06:47:00",3.2,1.7,1.6,0.0,11,996.8,1,2,"",90
"2023-03-14 06:48:00",3.2,1.7,1.6,0.0,12,996.8,1,2,"",90
"2023-03-14 06:49:00",3.2,1.7,1.6,0.0,14,996.9,1,2,"",90
"2023-03-14 06:50:00",3.2,1.7,1.6,0.0,16,996.9,1,2,"",90
"2023-03-14 06:51:00",3.2,1.7,1.6,0.0,14,996.9,2,3,"",90
"2023-03-14 06:52:00",3.2,1.9,1.6,0.0,14,996.9,2,3,"",91
"2023-03-14 06:53:00",3.2,1.7,1.6,0.0,12,996.8,2,3,"",90
"2023-03-14 06:54:00",3.2,1.9,1.6,0.0,14,996.9,1,2,"",91
"2023-03-14 06:55:00",3.2,1.7,1.6,0.0,14,996.9,2,3,"",90
"2023-03-14 06:56:00",3.2,1.9,1.6,0.0,14,996.9,1,3,"",91
"2023-03-14 06:57:00",3.2,1.9,1.6,0.0,14,996.9,1,3,"",91
"2023-03-14 06:58:00",3.2,1.9,1.6,0.0,14,997.0,1,2,"",91
"2023-03-14 06:59:00",3.2,1.9,1.6,0.0,16,997.0,1,3,"",91
"2023-03-14 07:00:00",3.2,1.9,1.6,0.0,16,997.1,2,3,"",91
"2023-03-14 07:01:00",3.2,1.9,1.6,0.0,16,997.1,1,2,"",91
"2023-03-14 07:02:00",3.2,1.9,1.6,0.0,16,997.2,1,3,"",91